EW5040 Weather Reports


Display with metric or nautical units.
time (UTC)temp
F
wind
direction
speed
MPH
gust
MPH
rain 1hr
in
rain 24hr
in
rain mn
in
humidity
%
barometer
mb
20260902083019 70 171 0.0 2.0 0.00 0.00 0.00 98 1013.3
20260902081517 70 171 0.0 3.0 0.00 0.00 0.00 98 1013.5
20260902080016 70 171 0.0 1.0 0.00 0.00 0.00 98 1013.7
20260902074515 70 171 0.0 3.0 0.00 0.00 0.00 98 1013.6
20260902073014 69 171 0.0 1.0 0.00 0.00 0.00 97 1013.7
20260902071513 69 171 0.0 2.0 0.00 0.00 0.00 97 1013.7
20260902070012 68 171 0.0 1.0 0.00 0.00 0.00 97 1013.8
20260902064511 68 171 0.0 1.0 0.00 0.00 0.00 96 1013.8
20260902063010 68 171 0.0 0.0 0.00 0.00 0.00 96 1013.8
20260902061518 68 171 0.0 1.0 0.00 0.00 0.00 96 1013.8
20260902060008 69 171 0.0 1.0 0.00 0.00 0.00 96 1013.9
20260902054507 69 171 0.0 1.0 0.00 0.00 0.00 96 1013.9
20260902053007 69 171 0.0 0.0 0.00 0.00 0.00 96 1014.0
20260902051504 70 171 0.0 0.0 0.00 0.00 0.00 96 1013.9
20260902050009 70 171 0.0 0.0 0.00 0.00 0.00 96 1013.7
20260902044503 70 171 0.0 0.0 0.00 0.00 0.00 96 1013.7
20260902043100 70 171 0.0 0.0 0.00 0.00 0.00 96 1013.7
20260902043002 70 171 0.0 0.0 0.00 0.00 0.00 96 1013.7
20260902041558 70 171 0.0 0.0 0.00 0.00 0.00 96 1013.7
20260902040057 70 171 0.0 0.0 0.00 0.00 0.00 96 1013.7
20260902034601 70 171 0.0 1.0 0.00 0.02 0.00 95 1013.5
20260902033106 70 171 0.0 0.0 0.00 0.02 0.00 95 1013.5
20260902031557 71 171 0.0 0.0 0.00 0.02 0.00 95 1013.5
20260902030054 71 171 0.0 1.0 0.00 0.02 0.00 95 1013.4
20260902024601 71 171 0.0 0.0 0.00 0.02 0.00 95 1013.5
20260902023053 71 171 0.0 0.0 0.00 0.02 0.00 95 1013.4
20260902021606 72 171 0.0 0.0 0.00 0.02 0.00 95 1013.6
20260902020053 72 171 0.0 0.0 0.00 0.02 0.00 95 1013.5
20260902014551 73 171 0.0 1.0 0.00 0.02 0.00 95 1013.5
20260902013053 73 171 0.0 2.0 0.00 0.02 0.00 96 1013.5
20260902011550 73 171 0.0 1.0 0.00 0.02 0.00 95 1013.4
20260902010053 73 171 0.0 1.0 0.00 0.02 0.00 95 1013.3
20260902004549 74 171 0.0 2.0 0.00 0.02 0.00 94 1013.0
20260902003049 74 170 2.0 4.0 0.00 0.02 0.00 94 1013.0
20260902001548 74 170 0.0 2.0 0.00 0.02 0.00 92 1012.9
20260902000048 75 170 0.0 1.0 0.00 0.02 0.00 91 1012.8
20260901234554 75 170 0.0 1.0 0.00 0.02 0.00 91 1012.9
20260901233050 76 170 0.0 2.0 0.00 0.02 0.00 91 1012.9
20260901231546 76 170 0.0 3.0 0.00 0.02 0.00 90 1013.1
20260901230145 77 170 0.0 3.0 0.00 0.02 0.00 89 1013.1
20260901224554 78 170 1.0 4.0 0.00 0.02 0.00 88 1013.2
20260901223043 78 171 0.0 4.0 0.00 0.02 0.00 87 1013.2
20260901221544 79 159 1.0 5.0 0.00 0.02 0.00 86 1013.3
20260901220040 79 159 1.0 5.0 0.00 0.02 0.00 85 1013.2
20260901214545 80 176 3.0 6.0 0.00 0.02 0.00 84 1013.1
20260901213043 81 198 2.0 7.0 0.00 0.02 0.00 82 1013.1
20260901211539 82 175 1.0 5.0 0.00 0.02 0.00 81 1013.2
20260901210038 83 88 3.0 7.0 0.00 0.02 0.00 79 1013.2
20260901204536 83 231 1.0 9.0 0.00 0.02 0.00 79 1013.1
20260901203041 83 244 0.0 4.0 0.00 0.02 0.00 79 1013.2
20260901201535 82 228 1.0 6.0 0.00 0.02 0.00 78 1013.4
20260901200041 82 211 2.0 10.0 0.00 0.02 0.00 80 1013.5
20260901194536 81 234 2.0 7.0 0.00 0.06 0.00 82 1013.3
20260901193032 81 192 2.0 8.0 0.00 0.06 0.00 79 1013.2
20260901191539 82 157 4.0 9.0 0.00 0.06 0.00 77 1013.2
20260901190039 83 252 2.0 7.0 0.00 0.06 0.00 77 1013.4
20260901184534 83 224 2.0 8.0 0.00 0.08 0.00 75 1013.5
20260901183033 83 192 2.0 6.0 0.00 0.08 0.00 75 1013.6
20260901181531 83 191 2.0 9.0 0.00 0.08 0.00 75 1013.6
20260901180026 84 167 2.0 7.0 0.00 0.08 0.00 77 1013.4
20260901174535 83 221 1.0 8.0 0.00 0.12 0.00 78 1013.4
20260901173028 83 235 0.0 9.0 0.00 0.12 0.00 77 1013.2
20260901171520 83 196 2.0 7.0 0.00 0.12 0.00 79 1013.0
20260901170018 83 243 2.0 8.0 0.00 0.12 0.00 80 1012.9
20260901164519 83 217 2.0 6.0 0.00 0.12 0.00 79 1013.0
20260901163015 82 241 2.0 6.0 0.00 0.12 0.00 80 1013.0
20260901161518 82 178 2.0 10.0 0.00 0.12 0.00 81 1013.0
20260901160014 82 204 3.0 9.0 0.00 0.12 0.00 82 1013.1
20260901154505 81 209 3.0 7.0 0.00 0.13 0.00 84 1013.0
20260901153001 80 218 3.0 5.0 0.00 0.13 0.00 85 1012.9
20260901151607 80 243 1.0 5.0 0.00 0.13 0.00 84 1012.9
20260901150056 79 212 3.0 8.0 0.00 0.13 0.00 85 1012.9
20260901144555 79 228 3.0 7.0 0.00 0.19 0.00 85 1012.8
20260901143107 79 213 0.0 6.0 0.00 0.19 0.00 87 1012.7
20260901141548 78 194 1.0 4.0 0.00 0.19 0.00 88 1012.9
20260901140048 78 133 0.0 3.0 0.00 0.19 0.00 90 1012.9
20260901134543 77 204 1.0 7.0 0.00 0.21 0.00 90 1013.0
20260901133042 77 239 2.0 5.0 0.00 0.21 0.00 89 1013.1
20260901131539 76 246 1.0 4.0 0.00 0.21 0.00 91 1013.0
20260901130036 76 259 1.0 5.0 0.00 0.21 0.00 93 1013.1
20260901124534 75 273 1.0 5.0 0.00 0.21 0.00 93 1013.2
20260901123034 74 190 1.0 4.0 0.00 0.21 0.00 94 1013.2
20260901121538 74 218 0.0 3.0 0.00 0.21 0.00 94 1013.0
20260901120023 73 197 1.0 4.0 0.00 0.21 0.00 94 1012.8
20260901114521 73 248 0.0 3.0 0.00 0.21 0.00 94 1012.8
20260901113020 73 217 1.0 4.0 0.00 0.21 0.00 94 1012.8
20260901111513 73 273 0.0 4.0 0.00 0.21 0.00 94 1012.6
20260901110008 73 211 0.0 4.0 0.00 0.21 0.00 94 1012.5
20260901104505 73 214 3.0 7.0 0.00 0.22 0.00 95 1012.4
20260901103001 72 194 1.0 6.0 0.00 0.22 0.00 95 1012.4
20260901101558 71 248 1.0 6.0 0.00 0.22 0.00 96 1012.3
20260901100105 71 221 1.0 4.0 0.00 0.22 0.00 96 1012.1
20260901094559 71 247 3.0 6.0 0.00 0.22 0.00 97 1012.0
20260901093105 71 253 1.0 4.0 0.00 0.22 0.00 97 1012.1
20260901091604 71 204 0.0 3.0 0.00 0.22 0.00 97 1012.0
20260901090053 71 204 0.0 4.0 0.00 0.22 0.00 97 1011.8
20260901084555 71 178 0.0 1.0 0.00 0.22 0.00 97 1011.9